Location: Newark
(45.4422°N, 16.2769°E)
Time: 06:01:36
(UTC+00:00)

Explorer 7 - Pass Details

Date: 28 January 2021
Orbit: 484 x 677 km, 50.3° (Epoch: 05 March)

Event Time Altitude Azimuth Distance (km) Brightness Sun altitude
Exits shadow 03:16:07 17° 60° (ENE) 1,372 9.4 -32.3°
Drops below altitude 10° 03:17:05 10° 63° (ENE) 1,750 10.1 -32.1°
Sets 03:19:22 0° 66° (ENE) 2,669 11.3 -31.7°
